Location: Cincinnati Observatory Center
(39.1389°N, 84.4225°W)
Time: 05:28:53
(UTC-04:00)

Hubble Space Telescope - Visible Passes

Search period start: 26 April 2018 00:00
Search period end: 06 May 2018 00:00
Orbit: 537 x 541 km, 28.5° (Epoch: 25 April)

Date Brightness Start Highest point End Pass type
(mag) Time Alt. Az. Time Alt. Az. Time Alt. Az.
26 Apr 2.9 21:18:18 10° S 21:19:39 11° SSE 21:20:37 11° SSE visible
27 Apr 2.8 21:07:15 10° SSW 21:09:12 13° SSE 21:11:10 10° SE visible
28 Apr 2.7 20:56:26 10° SSW 20:58:46 15° SSE 21:01:05 10° SE visible
28 Apr 3.1 22:36:24 10° SW 22:37:05 13° SW 22:37:05 13° SW visible
29 Apr 2.9 22:26:02 10° SW 22:27:28 15° SSW 22:27:28 15° SSW visible
30 Apr 2.7 22:15:43 10° SW 22:17:47 17° SSW 22:17:47 17° SSW visible
01 May 2.7 22:05:27 10° SW 22:08:02 16° S 22:08:03 16° S visible
02 May 2.7 21:55:16 10° SW 21:57:36 15° SSW 21:58:17 14° S visible
03 May 2.9 21:45:11 10° SW 21:47:10 13° SSW 21:48:30 12° S visible
04 May 3.1 21:35:20 10° SW 21:36:42 11° SSW 21:38:04 10° S visible
